Time,TemperatureF,DewpointF,PressureIn,WindDirection,WindDirectionDegrees,WindSpeedMPH,WindSpeedGustMPH,Humidity,HourlyPrecipIn,Conditions,Clouds,dailyrainin,SolarRadiationWatts/m^2,SoftwareType,DateUTC
2013-06-04 00:01:00,67.0,66.1,30.00,NNE,25,0.0,0.0,97,0.00,,,0.00,0,Wunderground v.1.15,2013-06-04 04:01:00,
2013-06-04 00:02:00,67.1,66.2,30.00,NNE,25,0.0,0.0,97,0.00,,,0.00,0,Wunderground v.1.15,2013-06-04 04:02:00,
2013-06-04 00:03:00,67.1,66.2,30.00,NNE,25,0.0,0.0,97,0.00,,,0.00,0,Wunderground v.1.15,2013-06-04 04:03:00,
2013-06-04 00:05:00,66.9,66.0,30.00,NNE,25,0.0,0.0,97,0.00,,,0.00,0,Wunderground v.1.15,2013-06-04 04:05:00,
2013-06-04 00:10:00,67.2,66.3,30.00,NNE,25,0.0,0.0,97,0.00,,,0.00,0,Wunderground v.1.15,2013-06-04 04:10:00,
2013-06-04 00:12:00,67.2,66.3,30.00,NNE,25,0.0,1.0,97,0.00,,,0.00,0,Wunderground v.1.15,2013-06-04 04:12:00,
2013-06-04 00:17:00,67.0,66.1,30.00,NNE,25,0.0,1.0,97,0.00,,,0.00,0,Wunderground v.1.15,2013-06-04 04:17:00,
2013-06-04 00:23:00,66.9,66.0,30.00,NNE,25,1.0,1.0,97,0.00,,,0.00,0,Wunderground v.1.15,2013-06-04 04:23:00,
2013-06-04 00:29:00,66.8,65.9,30.00,NNE,25,0.0,1.0,97,0.00,,,0.00,0,Wunderground v.1.15,2013-06-04 04:29:00,
2013-06-04 00:34:00,66.9,66.0,30.00,NNE,25,0.0,0.0,97,0.00,,,0.00,0,Wunderground v.1.15,2013-06-04 04:34:00,
2013-06-04 00:40:00,66.7,65.8,30.00,NNE,25,0.0,0.0,97,0.00,,,0.00,0,Wunderground v.1.15,2013-06-04 04:40:00,
2013-06-04 00:45:00,66.3,65.4,30.00,NNE,22,1.0,1.0,97,0.00,,,0.00,0,Wunderground v.1.15,2013-06-04 04:45:00,
2013-06-04 00:51:00,66.2,65.3,30.00,North,5,1.0,1.0,97,0.00,,,0.00,0,Wunderground v.1.15,2013-06-04 04:51:00,
2013-06-04 00:56:00,66.3,65.4,30.00,North,5,2.0,2.0,97,0.00,,,0.00,0,Wunderground v.1.15,2013-06-04 04:56:00,
2013-06-04 01:02:00,66.2,65.3,30.00,North,5,0.0,1.0,97,0.00,,,0.00,0,Wunderground v.1.15,2013-06-04 05:02:00,
2013-06-04 01:07:00,66.1,65.2,30.00,North,5,0.0,1.0,97,0.00,,,0.00,0,Wunderground v.1.15,2013-06-04 05:07:00,
2013-06-04 01:12:00,65.9,65.0,30.00,North,5,0.0,2.0,97,0.00,,,0.00,0,Wunderground v.1.15,2013-06-04 05:12:00,
2013-06-04 01:18:00,66.2,65.3,30.00,North,5,1.0,2.0,97,0.00,,,0.00,0,Wunderground v.1.15,2013-06-04 05:18:00,
2013-06-04 01:24:00,66.1,65.2,30.00,North,5,2.0,2.0,97,0.00,,,0.00,0,Wunderground v.1.15,2013-06-04 05:24:00,
2013-06-04 01:30:00,66.1,65.2,30.00,NNE,13,1.0,1.0,97,0.00,,,0.00,0,Wunderground v.1.15,2013-06-04 05:30:00,
2013-06-04 01:36:00,65.7,64.8,30.00,NNE,13,0.0,1.0,97,0.00,,,0.00,0,Wunderground v.1.15,2013-06-04 05:36:00,
2013-06-04 01:41:00,65.8,64.9,30.00,NNE,13,0.0,1.0,97,0.00,,,0.00,0,Wunderground v.1.15,2013-06-04 05:41:00,
2013-06-04 01:47:00,65.8,64.9,30.01,NNE,13,1.0,1.0,97,0.00,,,0.00,0,Wunderground v.1.15,2013-06-04 05:47:00,
2013-06-04 01:53:00,65.9,65.0,30.01,NNE,13,0.0,1.0,97,0.00,,,0.00,0,Wunderground v.1.15,2013-06-04 05:53:00,
2013-06-04 01:58:00,66.1,65.2,30.01,NNE,13,0.0,1.0,97,0.00,,,0.00,0,Wunderground v.1.15,2013-06-04 05:58:00,
2013-06-04 02:03:00,66.0,65.1,30.01,NNE,13,0.0,0.0,97,0.00,,,0.00,0,Wunderground v.1.15,2013-06-04 06:03:00,
2013-06-04 02:08:00,65.5,64.3,30.01,NNE,13,0.0,0.0,96,0.00,,,0.00,0,Wunderground v.1.15,2013-06-04 06:08:00,
2013-06-04 02:13:00,64.9,63.7,30.01,NNE,13,0.0,0.0,96,0.00,,,0.00,0,Wunderground v.1.15,2013-06-04 06:13:00,
2013-06-04 02:18:00,64.9,63.7,30.00,NNE,13,0.0,0.0,96,0.00,,,0.00,0,Wunderground v.1.15,2013-06-04 06:18:00,
2013-06-04 02:23:00,65.1,64.2,30.00,NNE,13,2.0,2.0,97,0.00,,,0.00,0,Wunderground v.1.15,2013-06-04 06:23:00,
2013-06-04 02:28:00,65.1,64.2,30.01,NNE,13,0.0,3.0,97,0.00,,,0.00,0,Wunderground v.1.15,2013-06-04 06:28:00,
2013-06-04 02:33:00,64.9,64.0,30.00,NNE,13,0.0,0.0,97,0.00,,,0.00,0,Wunderground v.1.15,2013-06-04 06:33:00,
2013-06-04 02:38:00,65.0,64.1,30.01,NNE,13,1.0,1.0,97,0.00,,,0.00,0,Wunderground v.1.15,2013-06-04 06:38:00,
2013-06-04 02:43:00,65.0,64.1,30.00,NNE,13,0.0,1.0,97,0.00,,,0.00,0,Wunderground v.1.15,2013-06-04 06:43:00,
2013-06-04 02:48:00,64.7,63.8,30.01,NNE,13,0.0,1.0,97,0.00,,,0.00,0,Wunderground v.1.15,2013-06-04 06:48:00,
2013-06-04 02:53:00,64.7,63.8,30.00,NNE,13,0.0,2.0,97,0.00,,,0.00,0,Wunderground v.1.15,2013-06-04 06:53:00,
2013-06-04 02:58:00,63.7,62.5,30.00,NNE,13,0.0,2.0,96,0.00,,,0.00,0,Wunderground v.1.15,2013-06-04 06:58:00,
2013-06-04 03:03:00,62.9,61.7,30.00,NNE,13,0.0,0.0,96,0.00,,,0.00,0,Wunderground v.1.15,2013-06-04 07:03:00,
2013-06-04 03:08:00,63.1,62.2,30.00,NNE,13,0.0,0.0,97,0.00,,,0.00,0,Wunderground v.1.15,2013-06-04 07:08:00,
2013-06-04 03:13:00,63.2,62.3,30.00,NNE,13,0.0,0.0,97,0.00,,,0.00,0,Wunderground v.1.15,2013-06-04 07:13:00,
2013-06-04 03:18:00,62.9,62.0,30.00,NNE,13,0.0,0.0,97,0.00,,,0.00,0,Wunderground v.1.15,2013-06-04 07:18:00,
2013-06-04 03:23:00,63.0,62.1,30.00,NNE,13,1.0,1.0,97,0.00,,,0.00,0,Wunderground v.1.15,2013-06-04 07:23:00,
2013-06-04 03:28:00,63.0,62.1,30.00,NNE,13,0.0,1.0,97,0.00,,,0.00,0,Wunderground v.1.15,2013-06-04 07:28:00,
2013-06-04 03:33:00,62.6,61.7,30.00,NNE,13,0.0,0.0,97,0.00,,,0.00,0,Wunderground v.1.15,2013-06-04 07:33:00,
2013-06-04 03:39:00,62.2,61.3,30.00,NNE,13,0.0,0.0,97,0.00,,,0.00,0,Wunderground v.1.15,2013-06-04 07:39:00,
2013-06-04 03:44:00,62.3,61.4,30.00,NNE,13,0.0,0.0,97,0.00,,,0.00,0,Wunderground v.1.15,2013-06-04 07:44:00,
2013-06-04 03:49:00,62.2,61.3,30.00,NNE,13,0.0,0.0,97,0.00,,,0.00,0,Wunderground v.1.15,2013-06-04 07:49:00,
2013-06-04 03:54:00,62.9,62.0,30.00,NNE,13,0.0,0.0,97,0.00,,,0.00,0,Wunderground v.1.15,2013-06-04 07:54:00,
2013-06-04 03:59:00,63.1,62.2,30.00,NNE,13,0.0,0.0,97,0.00,,,0.00,0,Wunderground v.1.15,2013-06-04 07:59:00,
2013-06-04 04:04:00,63.1,62.2,30.00,NNE,13,0.0,0.0,97,0.00,,,0.00,0,Wunderground v.1.15,2013-06-04 08:04:00,
2013-06-04 04:09:00,63.4,62.8,30.00,NNE,13,1.0,1.0,98,0.00,,,0.00,0,Wunderground v.1.15,2013-06-04 08:09:00,
2013-06-04 04:14:00,62.9,62.0,30.00,NNE,13,1.0,3.0,97,0.00,,,0.00,0,Wunderground v.1.15,2013-06-04 08:14:00,
2013-06-04 04:19:00,62.7,62.1,30.00,NNE,13,0.0,3.0,98,0.00,,,0.00,0,Wunderground v.1.15,2013-06-04 08:19:00,
2013-06-04 04:24:00,62.7,62.1,30.00,NNE,13,0.0,1.0,98,0.00,,,0.00,0,Wunderground v.1.15,2013-06-04 08:24:00,
2013-06-04 04:29:00,63.2,62.3,30.00,NNE,13,0.0,2.0,97,0.00,,,0.00,0,Wunderground v.1.15,2013-06-04 08:29:00,
2013-06-04 04:34:00,62.8,62.2,30.01,NNE,13,0.0,1.0,98,0.00,,,0.00,0,Wunderground v.1.15,2013-06-04 08:34:00,
2013-06-04 04:39:00,62.6,62.0,30.01,NNE,13,0.0,2.0,98,0.00,,,0.00,0,Wunderground v.1.15,2013-06-04 08:39:00,
2013-06-04 04:44:00,62.7,62.1,30.01,NW,306,0.0,1.0,98,0.00,,,0.00,0,Wunderground v.1.15,2013-06-04 08:44:00,
2013-06-04 04:49:00,62.8,62.2,30.01,NW,323,1.0,2.0,98,0.00,,,0.00,0,Wunderground v.1.15,2013-06-04 08:49:00,
2013-06-04 04:54:00,63.1,62.5,30.01,NNW,329,0.0,2.0,98,0.00,,,0.00,0,Wunderground v.1.15,2013-06-04 08:54:00,
2013-06-04 04:59:00,63.0,62.4,30.01,NNW,335,1.0,2.0,98,0.00,,,0.00,0,Wunderground v.1.15,2013-06-04 08:59:00,
2013-06-04 05:04:00,62.9,62.3,30.02,NNW,335,0.0,2.0,98,0.00,,,0.00,0,Wunderground v.1.15,2013-06-04 09:04:00,
2013-06-04 05:09:00,62.6,62.0,30.02,NNW,342,0.0,3.0,98,0.00,,,0.00,0,Wunderground v.1.15,2013-06-04 09:09:00,
2013-06-04 05:14:00,62.5,61.6,30.02,NNW,343,1.0,3.0,97,0.00,,,0.00,0,Wunderground v.1.15,2013-06-04 09:14:00,
2013-06-04 05:19:00,62.4,61.5,30.02,NNW,348,0.0,3.0,97,0.00,,,0.00,0,Wunderground v.1.15,2013-06-04 09:19:00,
2013-06-04 05:24:00,62.5,61.6,30.03,NNE,15,2.0,4.0,97,0.00,,,0.00,0,Wunderground v.1.15,2013-06-04 09:24:00,
2013-06-04 05:30:00,62.5,61.6,30.03,North,5,1.0,2.0,97,0.00,,,0.00,0,Wunderground v.1.15,2013-06-04 09:30:00,
2013-06-04 05:35:00,62.4,61.5,30.04,North,5,3.0,4.0,97,0.00,,,0.00,0,Wunderground v.1.15,2013-06-04 09:35:00,
2013-06-04 05:40:00,62.4,61.5,30.04,NNE,13,3.0,3.0,97,0.00,,,0.00,0,Wunderground v.1.15,2013-06-04 09:40:00,
2013-06-04 05:45:00,62.5,61.6,30.04,NNE,16,2.0,3.0,97,0.00,,,0.00,0,Wunderground v.1.15,2013-06-04 09:45:00,
2013-06-04 05:50:00,62.5,61.3,30.04,NNE,13,3.0,3.0,96,0.00,,,0.00,0,Wunderground v.1.15,2013-06-04 09:50:00,
2013-06-04 05:55:00,62.4,61.2,30.04,NNE,13,2.0,3.0,96,0.00,,,0.00,5,Wunderground v.1.15,2013-06-04 09:55:00,
2013-06-04 06:00:00,62.3,61.1,30.05,North,11,3.0,3.0,96,0.00,,,0.00,7,Wunderground v.1.15,2013-06-04 10:00:00,
2013-06-04 06:05:00,62.2,60.8,30.05,NNE,19,2.0,3.0,95,0.00,,,0.00,11,Wunderground v.1.15,2013-06-04 10:05:00,
2013-06-04 06:10:00,62.2,60.8,30.05,North,9,3.0,3.0,95,0.00,,,0.00,14,Wunderground v.1.15,2013-06-04 10:10:00,
2013-06-04 06:15:00,62.1,60.7,30.06,North,9,2.0,4.0,95,0.00,,,0.00,18,Wunderground v.1.15,2013-06-04 10:15:00,
2013-06-04 06:20:00,62.3,61.1,30.06,NNE,22,4.0,5.0,96,0.00,,,0.01,28,Wunderground v.1.15,2013-06-04 10:20:00,
2013-06-04 06:25:00,62.4,60.9,30.06,NNE,16,1.0,5.0,95,0.00,,,0.01,39,Wunderground v.1.15,2013-06-04 10:25:00,
2013-06-04 06:30:00,62.5,61.0,30.07,NNE,26,2.0,3.0,95,0.00,,,0.01,49,Wunderground v.1.15,2013-06-04 10:30:00,
2013-06-04 06:35:00,62.7,60.9,30.07,NNE,28,1.0,6.0,94,0.00,,,0.01,62,Wunderground v.1.15,2013-06-04 10:35:00,
2013-06-04 06:40:00,62.9,61.1,30.07,North,11,2.0,4.0,94,0.00,,,0.01,42,Wunderground v.1.15,2013-06-04 10:40:00,
2013-06-04 06:45:00,62.7,60.6,30.07,NNE,18,1.0,5.0,93,0.00,,,0.01,49,Wunderground v.1.15,2013-06-04 10:45:00,
2013-06-04 06:50:00,62.6,60.5,30.08,North,11,3.0,6.0,93,0.00,,,0.01,118,Wunderground v.1.15,2013-06-04 10:50:00,
2013-06-04 06:56:00,63.0,60.6,30.08,North,10,6.0,9.0,92,0.00,,,0.01,127,Wunderground v.1.15,2013-06-04 10:56:00,
2013-06-04 07:00:00,63.4,60.7,30.08,NE,44,5.0,6.0,91,0.00,,,0.01,69,Wunderground v.1.15,2013-06-04 11:00:00,
2013-06-04 07:06:00,63.5,60.8,30.08,North,11,2.0,6.0,91,0.00,,,0.01,158,Wunderground v.1.15,2013-06-04 11:06:00,
2013-06-04 07:11:00,63.5,60.8,30.08,NE,36,6.0,6.0,91,0.00,,,0.01,169,Wunderground v.1.15,2013-06-04 11:11:00,
2013-06-04 07:16:00,63.8,61.4,30.09,NNE,14,2.0,6.0,92,0.00,,,0.01,183,Wunderground v.1.15,2013-06-04 11:16:00,
2013-06-04 07:21:00,63.9,61.2,30.09,NNW,331,3.0,5.0,91,0.00,,,0.01,230,Wunderground v.1.15,2013-06-04 11:21:00,
2013-06-04 07:26:00,64.1,61.1,30.09,NNE,23,3.0,7.0,90,0.00,,,0.01,163,Wunderground v.1.15,2013-06-04 11:26:00,
2013-06-04 07:31:00,64.4,61.4,30.09,NNE,15,5.0,5.0,90,0.00,,,0.01,227,Wunderground v.1.15,2013-06-04 11:31:00,
2013-06-04 07:36:00,64.9,61.3,30.09,NNE,30,4.0,8.0,88,0.00,,,0.01,311,Wunderground v.1.15,2013-06-04 11:36:00,
2013-06-04 07:41:00,65.2,60.6,30.09,NE,39,3.0,9.0,85,0.00,,,0.01,295,Wunderground v.1.15,2013-06-04 11:41:00,
2013-06-04 07:46:00,65.6,60.6,30.09,NE,35,7.0,9.0,84,0.00,,,0.01,374,Wunderground v.1.15,2013-06-04 11:46:00,
2013-06-04 07:51:00,65.7,60.4,30.09,NNE,15,5.0,7.0,83,0.00,,,0.01,241,Wunderground v.1.15,2013-06-04 11:51:00,
2013-06-04 07:57:00,65.6,60.0,30.09,NNE,20,7.0,9.0,82,0.00,,,0.01,408,Wunderground v.1.15,2013-06-04 11:57:00,
2013-06-04 08:02:00,65.7,59.7,30.10,NE,37,4.0,9.0,81,0.00,,,0.01,179,Wunderground v.1.15,2013-06-04 12:02:00,
2013-06-04 08:07:00,66.0,59.7,30.09,NE,37,5.0,9.0,80,0.00,,,0.01,380,Wunderground v.1.15,2013-06-04 12:07:00,
2013-06-04 08:12:00,66.2,59.5,30.10,ENE,63,3.0,7.0,79,0.00,,,0.01,413,Wunderground v.1.15,2013-06-04 12:12:00,
2013-06-04 08:17:00,66.5,59.1,30.10,NNE,32,9.0,10.0,77,0.00,,,0.01,413,Wunderground v.1.15,2013-06-04 12:17:00,
2013-06-04 08:22:00,66.7,59.3,30.10,NE,41,3.0,7.0,77,0.00,,,0.01,429,Wunderground v.1.15,2013-06-04 12:22:00,
2013-06-04 08:27:00,66.8,58.2,30.11,NNE,24,8.0,10.0,74,0.00,,,0.01,445,Wunderground v.1.15,2013-06-04 12:27:00,
2013-06-04 08:32:00,66.9,58.3,30.11,NNE,16,4.0,8.0,74,0.00,,,0.01,448,Wunderground v.1.15,2013-06-04 12:32:00,
2013-06-04 08:37:00,66.8,58.2,30.10,NE,38,4.0,12.0,74,0.00,,,0.01,480,Wunderground v.1.15,2013-06-04 12:37:00,
2013-06-04 08:42:00,67.0,58.4,30.10,NNE,27,10.0,10.0,74,0.00,,,0.01,506,Wunderground v.1.15,2013-06-04 12:42:00,
2013-06-04 08:47:00,67.1,58.5,30.10,NNE,28,10.0,12.0,74,0.00,,,0.01,541,Wunderground v.1.15,2013-06-04 12:47:00,
2013-06-04 08:52:00,67.4,58.8,30.11,NW,311,4.0,12.0,74,0.00,,,0.01,538,Wunderground v.1.15,2013-06-04 12:52:00,
2013-06-04 08:57:00,67.7,59.1,30.11,NE,42,5.0,12.0,74,0.00,,,0.01,561,Wunderground v.1.15,2013-06-04 12:57:00,
2013-06-04 09:02:00,68.0,58.2,30.11,ENE,58,8.0,13.0,71,0.00,,,0.01,577,Wunderground v.1.15,2013-06-04 13:02:00,
2013-06-04 09:07:00,68.4,58.6,30.12,NE,35,6.0,13.0,71,0.00,,,0.01,584,Wunderground v.1.15,2013-06-04 13:07:00,
2013-06-04 09:12:00,68.7,58.1,30.11,NNE,32,7.0,12.0,69,0.00,,,0.01,605,Wunderground v.1.15,2013-06-04 13:12:00,
2013-06-04 09:17:00,69.0,58.0,30.11,NNE,21,6.0,13.0,68,0.00,,,0.01,615,Wunderground v.1.15,2013-06-04 13:17:00,
2013-06-04 09:22:00,69.4,57.5,30.11,ENE,70,8.0,12.0,66,0.00,,,0.01,624,Wunderground v.1.15,2013-06-04 13:22:00,
2013-06-04 09:27:00,69.5,57.6,30.11,NNE,32,9.0,12.0,66,0.00,,,0.01,631,Wunderground v.1.15,2013-06-04 13:27:00,
2013-06-04 09:32:00,69.4,57.5,30.12,NNW,348,6.0,10.0,66,0.00,,,0.01,645,Wunderground v.1.15,2013-06-04 13:32:00,
2013-06-04 09:37:00,69.7,57.8,30.12,NNE,23,6.0,10.0,66,0.00,,,0.01,659,Wunderground v.1.15,2013-06-04 13:37:00,
2013-06-04 09:42:00,70.3,58.4,30.13,North,5,7.0,9.0,66,0.00,,,0.01,675,Wunderground v.1.15,2013-06-04 13:42:00,
2013-06-04 09:47:00,70.7,58.4,30.13,NNE,28,2.0,9.0,65,0.00,,,0.01,686,Wunderground v.1.15,2013-06-04 13:47:00,
2013-06-04 09:52:00,70.7,57.9,30.14,NNE,30,8.0,9.0,64,0.00,,,0.01,694,Wunderground v.1.15,2013-06-04 13:52:00,
2013-06-04 09:57:00,70.4,58.1,30.14,NNE,33,8.0,12.0,65,0.00,,,0.01,705,Wunderground v.1.15,2013-06-04 13:57:00,
2013-06-04 10:03:00,70.6,58.3,30.14,NE,47,7.0,11.0,65,0.00,,,0.01,717,Wunderground v.1.15,2013-06-04 14:03:00,
2013-06-04 10:08:00,70.9,59.0,30.14,NE,53,7.0,12.0,66,0.00,,,0.01,735,Wunderground v.1.15,2013-06-04 14:08:00,
2013-06-04 10:13:00,71.5,57.8,30.13,NE,49,6.0,14.0,62,0.00,,,0.01,751,Wunderground v.1.15,2013-06-04 14:13:00,
2013-06-04 10:18:00,71.8,58.1,30.14,NE,41,10.0,14.0,62,0.00,,,0.01,756,Wunderground v.1.15,2013-06-04 14:18:00,
2013-06-04 10:23:00,71.6,58.3,30.14,NNW,338,7.0,11.0,63,0.00,,,0.01,775,Wunderground v.1.15,2013-06-04 14:23:00,
2013-06-04 10:28:00,71.8,58.5,30.15,North,10,5.0,11.0,63,0.00,,,0.01,796,Wunderground v.1.15,2013-06-04 14:28:00,
2013-06-04 10:33:00,72.2,58.0,30.15,North,351,7.0,12.0,61,0.00,,,0.01,795,Wunderground v.1.15,2013-06-04 14:33:00,
2013-06-04 10:38:00,72.3,57.6,30.14,ENE,64,9.0,13.0,60,0.00,,,0.01,812,Wunderground v.1.15,2013-06-04 14:38:00,
2013-06-04 10:43:00,72.5,58.3,30.14,NE,38,5.0,12.0,61,0.00,,,0.01,471,Wunderground v.1.15,2013-06-04 14:43:00,
2013-06-04 10:48:00,72.5,57.8,30.14,NE,46,8.0,12.0,60,0.00,,,0.01,831,Wunderground v.1.15,2013-06-04 14:48:00,
2013-06-04 10:53:00,72.7,58.5,30.14,NE,43,9.0,11.0,61,0.00,,,0.01,835,Wunderground v.1.15,2013-06-04 14:53:00,
2013-06-04 10:58:00,73.2,58.0,30.14,NE,46,4.0,12.0,59,0.00,,,0.01,849,Wunderground v.1.15,2013-06-04 14:58:00,
2013-06-04 11:03:00,73.5,58.3,30.14,NE,49,6.0,11.0,59,0.00,,,0.01,858,Wunderground v.1.15,2013-06-04 15:03:00,
2013-06-04 11:08:00,73.9,58.2,30.15,ESE,113,8.0,11.0,58,0.00,,,0.01,863,Wunderground v.1.15,2013-06-04 15:08:00,
2013-06-04 11:13:00,73.8,57.6,30.15,ENE,71,10.0,12.0,57,0.00,,,0.01,865,Wunderground v.1.15,2013-06-04 15:13:00,
2013-06-04 11:18:00,73.9,57.2,30.15,ENE,64,11.0,12.0,56,0.00,,,0.01,867,Wunderground v.1.15,2013-06-04 15:18:00,
2013-06-04 11:23:00,73.9,57.2,30.14,NNE,25,7.0,11.0,56,0.00,,,0.01,875,Wunderground v.1.15,2013-06-04 15:23:00,
2013-06-04 11:28:00,74.0,57.8,30.15,NNE,27,10.0,14.0,57,0.00,,,0.01,881,Wunderground v.1.15,2013-06-04 15:28:00,
2013-06-04 11:33:00,74.0,57.8,30.15,NE,39,8.0,14.0,57,0.00,,,0.01,886,Wunderground v.1.15,2013-06-04 15:33:00,
2013-06-04 11:38:00,74.3,57.6,30.15,NE,48,9.0,14.0,56,0.00,,,0.01,895,Wunderground v.1.15,2013-06-04 15:38:00,
2013-06-04 11:43:00,74.2,57.5,30.15,NNE,13,8.0,10.0,56,0.00,,,0.01,900,Wunderground v.1.15,2013-06-04 15:43:00,
2013-06-04 11:48:00,74.2,58.5,30.14,NE,42,4.0,11.0,58,0.00,,,0.01,904,Wunderground v.1.15,2013-06-04 15:48:00,
2013-06-04 11:53:00,75.1,61.6,30.14,NE,56,5.0,9.0,63,0.00,,,0.01,907,Wunderground v.1.15,2013-06-04 15:53:00,
2013-06-04 11:58:00,75.0,59.2,30.15,NE,35,5.0,9.0,58,0.00,,,0.01,909,Wunderground v.1.15,2013-06-04 15:58:00,
2013-06-04 12:03:00,74.7,58.5,30.16,East,84,2.0,5.0,57,0.00,,,0.01,914,Wunderground v.1.15,2013-06-04 16:03:00,
2013-06-04 12:08:00,75.7,57.9,30.15,NE,52,6.0,11.0,54,0.00,,,0.01,919,Wunderground v.1.15,2013-06-04 16:08:00,
2013-06-04 12:13:00,75.3,58.5,30.15,East,95,3.0,7.0,56,0.00,,,0.01,921,Wunderground v.1.15,2013-06-04 16:13:00,
2013-06-04 12:18:00,75.9,58.1,30.15,NE,38,4.0,10.0,54,0.00,,,0.01,926,Wunderground v.1.15,2013-06-04 16:18:00,
2013-06-04 12:23:00,75.8,57.4,30.15,ENE,74,5.0,12.0,53,0.00,,,0.01,926,Wunderground v.1.15,2013-06-04 16:23:00,
2013-06-04 12:28:00,75.6,57.8,30.15,NE,35,8.0,12.0,54,0.00,,,0.01,930,Wunderground v.1.15,2013-06-04 16:28:00,
2013-06-04 12:33:00,76.3,58.4,30.15,ENE,61,1.0,9.0,54,0.00,,,0.01,932,Wunderground v.1.15,2013-06-04 16:33:00,
2013-06-04 12:38:00,75.9,57.5,30.15,ENE,74,8.0,9.0,53,0.00,,,0.01,933,Wunderground v.1.15,2013-06-04 16:38:00,
2013-06-04 12:43:00,75.8,57.4,30.15,East,98,3.0,8.0,53,0.00,,,0.01,937,Wunderground v.1.15,2013-06-04 16:43:00,
2013-06-04 12:48:00,75.9,57.5,30.15,NE,53,2.0,8.0,53,0.00,,,0.01,933,Wunderground v.1.15,2013-06-04 16:48:00,
2013-06-04 12:53:00,76.0,57.6,30.15,ENE,68,4.0,9.0,53,0.00,,,0.01,937,Wunderground v.1.15,2013-06-04 16:53:00,
2013-06-04 12:58:00,75.7,57.9,30.15,ENE,66,8.0,9.0,54,0.00,,,0.01,937,Wunderground v.1.15,2013-06-04 16:58:00,
2013-06-04 13:03:00,76.2,57.3,30.15,ENE,69,7.0,10.0,52,0.00,,,0.01,935,Wunderground v.1.15,2013-06-04 17:03:00,
2013-06-04 13:08:00,76.4,58.5,30.14,South,179,0.0,10.0,54,0.00,,,0.01,933,Wunderground v.1.15,2013-06-04 17:08:00,
2013-06-04 13:13:00,77.0,58.6,30.15,NNE,24,3.0,9.0,53,0.00,,,0.01,932,Wunderground v.1.15,2013-06-04 17:13:00,
2013-06-04 13:18:00,77.4,57.9,30.14,NE,48,4.0,10.0,51,0.00,,,0.01,923,Wunderground v.1.15,2013-06-04 17:18:00,
2013-06-04 13:23:00,76.3,57.4,30.14,East,81,6.0,10.0,52,0.00,,,0.01,928,Wunderground v.1.15,2013-06-04 17:23:00,
2013-06-04 13:29:00,77.7,58.1,30.14,NE,42,4.0,10.0,51,0.00,,,0.01,923,Wunderground v.1.15,2013-06-04 17:29:00,
2013-06-04 13:34:00,77.2,57.1,30.14,SE,143,4.0,9.0,50,0.00,,,0.01,923,Wunderground v.1.15,2013-06-04 17:34:00,
2013-06-04 13:39:00,77.7,56.4,30.15,ESE,115,5.0,11.0,48,0.00,,,0.01,923,Wunderground v.1.15,2013-06-04 17:39:00,
2013-06-04 13:44:00,78.3,57.6,30.14,NE,52,7.0,9.0,49,0.00,,,0.01,914,Wunderground v.1.15,2013-06-04 17:44:00,
2013-06-04 13:49:00,77.4,56.2,30.14,ENE,69,4.0,9.0,48,0.00,,,0.01,907,Wunderground v.1.15,2013-06-04 17:49:00,
2013-06-04 13:54:00,77.0,57.5,30.14,NNE,27,6.0,9.0,51,0.00,,,0.01,907,Wunderground v.1.15,2013-06-04 17:54:00,
2013-06-04 13:59:00,76.8,57.3,30.14,NNE,22,5.0,9.0,51,0.00,,,0.01,898,Wunderground v.1.15,2013-06-04 17:59:00,
2013-06-04 14:04:00,77.8,57.7,30.14,NNE,30,5.0,10.0,50,0.00,,,0.01,895,Wunderground v.1.15,2013-06-04 18:04:00,
2013-06-04 14:09:00,77.6,56.9,30.14,NE,34,6.0,10.0,49,0.00,,,0.01,891,Wunderground v.1.15,2013-06-04 18:09:00,
2013-06-04 14:14:00,77.6,56.9,30.13,ESE,109,4.0,11.0,49,0.00,,,0.01,888,Wunderground v.1.15,2013-06-04 18:14:00,
2013-06-04 14:19:00,77.7,55.9,30.13,NE,35,4.0,11.0,47,0.00,,,0.01,872,Wunderground v.1.15,2013-06-04 18:19:00,
2013-06-04 14:24:00,77.9,56.0,30.13,East,95,3.0,7.0,47,0.00,,,0.01,872,Wunderground v.1.15,2013-06-04 18:24:00,
2013-06-04 14:29:00,77.8,56.5,30.13,ESE,118,5.0,7.0,48,0.00,,,0.01,865,Wunderground v.1.15,2013-06-04 18:29:00,
2013-06-04 14:34:00,78.3,55.8,30.13,ESE,123,4.0,7.0,46,0.00,,,0.01,851,Wunderground v.1.15,2013-06-04 18:34:00,
2013-06-04 14:39:00,78.1,57.4,30.13,NE,38,5.0,7.0,49,0.00,,,0.01,844,Wunderground v.1.15,2013-06-04 18:39:00,
2013-06-04 14:44:00,78.6,56.7,30.13,ENE,72,4.0,6.0,47,0.00,,,0.01,828,Wunderground v.1.15,2013-06-04 18:44:00,
2013-06-04 14:49:00,78.7,57.4,30.13,ENE,78,3.0,9.0,48,0.00,,,0.01,833,Wunderground v.1.15,2013-06-04 18:49:00,
2013-06-04 14:54:00,78.4,56.5,30.13,SE,125,0.0,7.0,47,0.00,,,0.01,821,Wunderground v.1.15,2013-06-04 18:54:00,
2013-06-04 14:59:00,77.9,56.6,30.13,East,90,2.0,7.0,48,0.00,,,0.01,817,Wunderground v.1.15,2013-06-04 18:59:00,
2013-06-04 15:05:00,79.3,57.9,30.13,NE,52,5.0,7.0,48,0.00,,,0.01,902,Wunderground v.1.15,2013-06-04 19:05:00,
2013-06-04 15:10:00,77.8,56.0,30.13,NNE,33,0.0,3.0,47,0.00,,,0.01,306,Wunderground v.1.15,2013-06-04 19:10:00,
2013-06-04 15:15:00,78.2,56.9,30.13,SE,144,2.0,4.0,48,0.00,,,0.01,930,Wunderground v.1.15,2013-06-04 19:15:00,
2013-06-04 15:20:00,78.1,57.4,30.12,SSW,196,1.0,2.0,49,0.00,,,0.01,383,Wunderground v.1.15,2013-06-04 19:20:00,
2013-06-04 15:25:00,78.4,57.7,30.12,NNE,17,5.0,9.0,49,0.00,,,0.01,865,Wunderground v.1.15,2013-06-04 19:25:00,
2013-06-04 15:30:00,79.1,57.1,30.12,NE,53,4.0,5.0,47,0.00,,,0.01,675,Wunderground v.1.15,2013-06-04 19:30:00,
2013-06-04 15:35:00,79.1,55.9,30.13,SE,144,1.0,5.0,45,0.00,,,0.01,826,Wunderground v.1.15,2013-06-04 19:35:00,
2013-06-04 15:40:00,79.7,56.5,30.12,SE,126,2.0,3.0,45,0.00,,,0.01,831,Wunderground v.1.15,2013-06-04 19:40:00,
2013-06-04 15:45:00,79.0,57.6,30.12,South,178,1.0,4.0,48,0.00,,,0.01,875,Wunderground v.1.15,2013-06-04 19:45:00,
2013-06-04 15:50:00,79.9,62.8,30.11,West,281,0.0,2.0,56,0.00,,,0.01,991,Wunderground v.1.15,2013-06-04 19:50:00,
2013-06-04 15:55:00,79.5,56.9,30.11,ESE,123,0.0,8.0,46,0.00,,,0.01,434,Wunderground v.1.15,2013-06-04 19:55:00,
2013-06-04 16:00:00,79.2,57.2,30.11,NNE,30,5.0,5.0,47,0.00,,,0.01,287,Wunderground v.1.15,2013-06-04 20:00:00,
2013-06-04 16:05:00,77.6,59.1,30.11,NNE,24,4.0,7.0,53,0.00,,,0.01,281,Wunderground v.1.15,2013-06-04 20:05:00,
2013-06-04 16:10:00,77.1,59.2,30.12,NNE,23,4.0,4.0,54,0.00,,,0.01,290,Wunderground v.1.15,2013-06-04 20:10:00,
2013-06-04 16:15:00,76.8,59.9,30.11,NE,50,5.0,6.0,56,0.00,,,0.01,255,Wunderground v.1.15,2013-06-04 20:15:00,
2013-06-04 16:20:00,77.2,57.7,30.11,NE,38,2.0,4.0,51,0.00,,,0.01,443,Wunderground v.1.15,2013-06-04 20:20:00,
2013-06-04 16:25:00,77.7,57.0,30.11,NE,50,1.0,5.0,49,0.00,,,0.01,661,Wunderground v.1.15,2013-06-04 20:25:00,
2013-06-04 16:30:00,78.5,57.2,30.11,South,172,1.0,2.0,48,0.00,,,0.01,629,Wunderground v.1.15,2013-06-04 20:30:00,
2013-06-04 16:35:00,78.4,57.7,30.11,SSE,149,0.0,3.0,49,0.00,,,0.01,606,Wunderground v.1.15,2013-06-04 20:35:00,
2013-06-04 16:40:00,78.8,55.7,30.11,East,96,1.0,2.0,45,0.00,,,0.01,587,Wunderground v.1.15,2013-06-04 20:40:00,
2013-06-04 16:45:00,79.4,58.0,30.11,ENE,78,3.0,3.0,48,0.00,,,0.01,563,Wunderground v.1.15,2013-06-04 20:45:00,
2013-06-04 16:50:00,79.2,56.6,30.11,East,99,3.0,3.0,46,0.00,,,0.01,545,Wunderground v.1.15,2013-06-04 20:50:00,
2013-06-04 16:55:00,78.9,57.5,30.11,ENE,77,1.0,5.0,48,0.00,,,0.01,534,Wunderground v.1.15,2013-06-04 20:55:00,
2013-06-04 17:00:00,79.3,58.5,30.12,ESE,108,1.0,2.0,49,0.00,,,0.01,522,Wunderground v.1.15,2013-06-04 21:00:00,
2013-06-04 17:05:00,79.5,59.8,30.11,ESE,108,0.0,2.0,51,0.00,,,0.01,504,Wunderground v.1.15,2013-06-04 21:05:00,
2013-06-04 17:10:00,79.6,59.9,30.11,ENE,64,0.0,1.0,51,0.00,,,0.01,497,Wunderground v.1.15,2013-06-04 21:10:00,
2013-06-04 17:15:00,79.8,57.2,30.11,ENE,62,3.0,5.0,46,0.00,,,0.01,415,Wunderground v.1.15,2013-06-04 21:15:00,
2013-06-04 17:20:00,79.6,57.0,30.11,SE,144,0.0,2.0,46,0.00,,,0.01,452,Wunderground v.1.15,2013-06-04 21:20:00,
2013-06-04 17:25:00,79.1,56.5,30.11,SE,130,0.0,4.0,46,0.00,,,0.01,448,Wunderground v.1.15,2013-06-04 21:25:00,
2013-06-04 17:30:00,78.5,59.4,30.11,SE,128,3.0,3.0,52,0.00,,,0.01,139,Wunderground v.1.15,2013-06-04 21:30:00,
2013-06-04 17:35:00,78.2,59.1,30.11,NNE,30,0.0,3.0,52,0.00,,,0.01,406,Wunderground v.1.15,2013-06-04 21:35:00,
2013-06-04 17:40:00,78.2,62.7,30.11,NE,36,4.0,4.0,59,0.00,,,0.01,401,Wunderground v.1.15,2013-06-04 21:40:00,
2013-06-04 17:45:00,78.5,59.4,30.11,NNE,22,3.0,5.0,52,0.00,,,0.01,385,Wunderground v.1.15,2013-06-04 21:45:00,
2013-06-04 17:50:00,78.4,57.1,30.11,ENE,63,2.0,3.0,48,0.00,,,0.01,388,Wunderground v.1.15,2013-06-04 21:50:00,
2013-06-04 17:55:00,78.4,59.9,30.10,WNW,287,0.0,3.0,53,0.00,,,0.01,353,Wunderground v.1.15,2013-06-04 21:55:00,
2013-06-04 18:00:00,78.3,63.3,30.10,North,360,1.0,1.0,60,0.00,,,0.01,336,Wunderground v.1.15,2013-06-04 22:00:00,
2013-06-04 18:06:00,78.6,57.3,30.11,East,80,3.0,5.0,48,0.00,,,0.01,318,Wunderground v.1.15,2013-06-04 22:06:00,
2013-06-04 18:11:00,79.1,57.1,30.11,ENE,61,1.0,5.0,47,0.00,,,0.01,295,Wunderground v.1.15,2013-06-04 22:11:00,
2013-06-04 18:16:00,78.9,58.7,30.11,North,11,5.0,6.0,50,0.00,,,0.01,274,Wunderground v.1.15,2013-06-04 22:16:00,
2013-06-04 18:21:00,78.5,57.7,30.10,NNE,24,4.0,6.0,49,0.00,,,0.01,258,Wunderground v.1.15,2013-06-04 22:21:00,
2013-06-04 18:26:00,78.2,56.9,30.10,NE,35,2.0,6.0,48,0.00,,,0.01,253,Wunderground v.1.15,2013-06-04 22:26:00,
2013-06-04 18:31:00,78.6,59.5,30.10,NNE,27,2.0,3.0,52,0.00,,,0.01,237,Wunderground v.1.15,2013-06-04 22:31:00,
2013-06-04 18:36:00,77.7,60.2,30.10,North,5,2.0,4.0,55,0.00,,,0.01,221,Wunderground v.1.15,2013-06-04 22:36:00,
2013-06-04 18:41:00,77.4,57.9,30.10,NE,45,3.0,5.0,51,0.00,,,0.01,200,Wunderground v.1.15,2013-06-04 22:41:00,
2013-06-04 18:46:00,77.6,58.0,30.10,NNE,29,6.0,6.0,51,0.00,,,0.01,179,Wunderground v.1.15,2013-06-04 22:46:00,
2013-06-04 18:51:00,77.5,57.4,30.10,NNE,20,3.0,6.0,50,0.00,,,0.01,156,Wunderground v.1.15,2013-06-04 22:51:00,
2013-06-04 18:56:00,76.6,60.7,30.10,NNE,27,2.0,6.0,58,0.00,,,0.01,141,Wunderground v.1.15,2013-06-04 22:56:00,
2013-06-04 19:01:00,76.3,57.9,30.10,NNE,16,3.0,6.0,53,0.00,,,0.01,127,Wunderground v.1.15,2013-06-04 23:01:00,
2013-06-04 19:07:00,76.0,60.2,30.10,NNE,19,0.0,6.0,58,0.00,,,0.01,107,Wunderground v.1.15,2013-06-04 23:07:00,
2013-06-04 19:12:00,75.2,59.4,30.10,North,360,2.0,4.0,58,0.00,,,0.01,97,Wunderground v.1.15,2013-06-04 23:12:00,
2013-06-04 19:17:00,74.8,59.0,30.10,North,360,2.0,4.0,58,0.00,,,0.01,86,Wunderground v.1.15,2013-06-04 23:17:00,
2013-06-04 19:22:00,74.6,59.8,30.10,North,355,2.0,2.0,60,0.00,,,0.01,72,Wunderground v.1.15,2013-06-04 23:22:00,
2013-06-04 19:27:00,74.4,59.6,30.11,North,355,1.0,4.0,60,0.00,,,0.01,62,Wunderground v.1.15,2013-06-04 23:27:00,
2013-06-04 19:32:00,74.2,59.4,30.11,NNW,345,1.0,2.0,60,0.00,,,0.01,51,Wunderground v.1.15,2013-06-04 23:32:00,
2013-06-04 19:37:00,73.9,60.1,30.11,North,355,2.0,4.0,62,0.00,,,0.01,37,Wunderground v.1.15,2013-06-04 23:37:00,
2013-06-04 19:42:00,73.6,60.2,30.10,North,355,3.0,3.0,63,0.00,,,0.01,32,Wunderground v.1.15,2013-06-04 23:42:00,
2013-06-04 19:47:00,73.2,60.3,30.11,North,351,2.0,4.0,64,0.00,,,0.01,28,Wunderground v.1.15,2013-06-04 23:47:00,
2013-06-04 19:52:00,72.5,60.5,30.10,North,350,0.0,3.0,66,0.00,,,0.01,26,Wunderground v.1.15,2013-06-04 23:52:00,
2013-06-04 19:57:00,72.1,60.1,30.11,North,355,4.0,4.0,66,0.00,,,0.01,25,Wunderground v.1.15,2013-06-04 23:57:00,
2013-06-04 20:02:00,71.6,60.1,30.11,North,5,3.0,4.0,67,0.00,,,0.01,21,Wunderground v.1.15,2013-06-05 00:02:00,
2013-06-04 20:07:00,71.4,59.9,30.11,NNW,342,1.0,4.0,67,0.00,,,0.01,18,Wunderground v.1.15,2013-06-05 00:07:00,
2013-06-04 20:12:00,71.0,60.3,30.11,NNW,346,2.0,3.0,69,0.00,,,0.01,14,Wunderground v.1.15,2013-06-05 00:12:00,
2013-06-04 20:17:00,70.2,60.7,30.11,NNW,346,0.0,3.0,72,0.00,,,0.01,11,Wunderground v.1.15,2013-06-05 00:17:00,
2013-06-04 20:22:00,69.0,61.9,30.11,NNW,346,0.0,1.0,78,0.00,,,0.01,9,Wunderground v.1.15,2013-06-05 00:22:00,
2013-06-04 20:27:00,67.5,61.1,30.12,NNW,346,0.0,1.0,80,0.00,,,0.01,5,Wunderground v.1.15,2013-06-05 00:27:00,
2013-06-04 20:32:00,66.8,61.1,30.12,NNW,346,0.0,0.0,82,0.00,,,0.01,0,Wunderground v.1.15,2013-06-05 00:32:00,
2013-06-04 20:37:00,66.2,61.6,30.12,NNW,346,0.0,1.0,85,0.00,,,0.01,0,Wunderground v.1.15,2013-06-05 00:37:00,
2013-06-04 20:42:00,65.4,61.4,30.12,NNW,346,0.0,0.0,87,0.00,,,0.01,0,Wunderground v.1.15,2013-06-05 00:42:00,
2013-06-04 20:47:00,65.1,61.5,30.12,NNW,346,0.0,0.0,88,0.00,,,0.01,0,Wunderground v.1.15,2013-06-05 00:47:00,
2013-06-04 20:52:00,65.6,61.3,30.13,NNW,346,0.0,0.0,86,0.00,,,0.01,0,Wunderground v.1.15,2013-06-05 00:52:00,
2013-06-04 20:57:00,64.8,60.8,30.13,NNW,346,0.0,0.0,87,0.00,,,0.01,0,Wunderground v.1.15,2013-06-05 00:57:00,
2013-06-04 21:02:00,64.6,61.0,30.13,NNW,346,0.0,0.0,88,0.00,,,0.01,0,Wunderground v.1.15,2013-06-05 01:02:00,
2013-06-04 21:07:00,65.1,60.5,30.14,NNW,346,0.0,0.0,85,0.00,,,0.01,0,Wunderground v.1.15,2013-06-05 01:07:00,
2013-06-04 21:12:00,64.9,60.3,30.14,NNW,346,0.0,0.0,85,0.00,,,0.01,0,Wunderground v.1.15,2013-06-05 01:12:00,
2013-06-04 21:17:00,64.3,60.0,30.14,NNW,346,0.0,0.0,86,0.00,,,0.01,0,Wunderground v.1.15,2013-06-05 01:17:00,
2013-06-04 21:22:00,64.1,60.2,30.15,NNW,346,0.0,0.0,87,0.00,,,0.01,0,Wunderground v.1.15,2013-06-05 01:22:00,
2013-06-04 21:27:00,63.1,59.8,30.15,NNW,346,0.0,0.0,89,0.00,,,0.01,0,Wunderground v.1.15,2013-06-05 01:27:00,
2013-06-04 21:32:00,62.5,59.5,30.15,NNW,346,0.0,0.0,90,0.00,,,0.01,0,Wunderground v.1.15,2013-06-05 01:32:00,
2013-06-04 21:37:00,62.2,59.8,30.15,NNW,346,0.0,0.0,92,0.00,,,0.01,0,Wunderground v.1.15,2013-06-05 01:37:00,
2013-06-04 21:42:00,62.6,59.6,30.16,NNW,346,0.0,0.0,90,0.00,,,0.01,0,Wunderground v.1.15,2013-06-05 01:42:00,
2013-06-04 21:47:00,62.7,59.7,30.16,NNW,346,0.0,0.0,90,0.00,,,0.01,0,Wunderground v.1.15,2013-06-05 01:47:00,
2013-06-04 21:52:00,62.8,60.1,30.16,NNW,346,0.0,0.0,91,0.00,,,0.01,0,Wunderground v.1.15,2013-06-05 01:52:00,
2013-06-04 21:57:00,62.6,59.6,30.16,NNW,346,0.0,0.0,90,0.00,,,0.01,0,Wunderground v.1.15,2013-06-05 01:57:00,
2013-06-04 22:02:00,62.0,59.3,30.16,NNW,346,0.0,0.0,91,0.00,,,0.01,0,Wunderground v.1.15,2013-06-05 02:02:00,
2013-06-04 22:07:00,61.5,59.2,30.16,NNW,346,0.0,0.0,92,0.00,,,0.01,0,Wunderground v.1.15,2013-06-05 02:07:00,
2013-06-04 22:12:00,61.4,59.4,30.16,NNW,346,0.0,0.0,93,0.00,,,0.01,0,Wunderground v.1.15,2013-06-05 02:12:00,
2013-06-04 22:17:00,61.4,59.4,30.16,NNW,346,0.0,0.0,93,0.00,,,0.01,0,Wunderground v.1.15,2013-06-05 02:17:00,
2013-06-04 22:22:00,61.1,58.8,30.16,NNW,346,0.0,1.0,92,0.00,,,0.01,0,Wunderground v.1.15,2013-06-05 02:22:00,
2013-06-04 22:27:00,60.8,58.5,30.16,NNW,346,0.0,1.0,92,0.00,,,0.01,0,Wunderground v.1.15,2013-06-05 02:27:00,
2013-06-04 22:32:00,60.4,58.4,30.17,NNW,346,0.0,0.0,93,0.00,,,0.01,0,Wunderground v.1.15,2013-06-05 02:32:00,
2013-06-04 22:37:00,60.1,58.1,30.17,NNW,346,0.0,0.0,93,0.00,,,0.01,0,Wunderground v.1.15,2013-06-05 02:37:00,
2013-06-04 22:42:00,60.0,58.0,30.17,NNW,346,0.0,0.0,93,0.00,,,0.01,0,Wunderground v.1.15,2013-06-05 02:42:00,
2013-06-04 22:47:00,60.1,58.1,30.17,NNW,346,0.0,0.0,93,0.00,,,0.01,0,Wunderground v.1.15,2013-06-05 02:47:00,
2013-06-04 22:52:00,59.9,57.9,30.17,NNW,346,0.0,0.0,93,0.00,,,0.01,0,Wunderground v.1.15,2013-06-05 02:52:00,
2013-06-04 22:57:00,59.6,57.6,30.17,NNW,346,0.0,0.0,93,0.00,,,0.01,0,Wunderground v.1.15,2013-06-05 02:57:00,
2013-06-04 23:02:00,59.5,57.8,30.18,NNW,346,0.0,0.0,94,0.00,,,0.01,0,Wunderground v.1.15,2013-06-05 03:02:00,
2013-06-04 23:07:00,59.4,57.4,30.17,NNW,344,0.0,0.0,93,0.00,,,0.01,0,Wunderground v.1.15,2013-06-05 03:07:00,
2013-06-04 23:12:00,59.4,57.7,30.18,NNW,344,0.0,0.0,94,0.00,,,0.01,0,Wunderground v.1.15,2013-06-05 03:12:00,
2013-06-04 23:17:00,59.5,57.5,30.17,NNW,344,0.0,0.0,93,0.00,,,0.01,0,Wunderground v.1.15,2013-06-05 03:17:00,
2013-06-04 23:22:00,59.3,57.6,30.17,NNW,344,0.0,0.0,94,0.00,,,0.01,0,Wunderground v.1.15,2013-06-05 03:22:00,
2013-06-04 23:27:00,59.4,57.4,30.17,NNW,344,0.0,0.0,93,0.00,,,0.01,0,Wunderground v.1.15,2013-06-05 03:27:00,
2013-06-04 23:32:00,59.0,57.0,30.17,NNW,344,0.0,0.0,93,0.00,,,0.01,0,Wunderground v.1.15,2013-06-05 03:32:00,
2013-06-04 23:37:00,58.9,56.9,30.17,NNW,344,0.0,0.0,93,0.00,,,0.01,0,Wunderground v.1.15,2013-06-05 03:37:00,
2013-06-04 23:42:00,58.9,57.2,30.17,NNW,344,0.0,0.0,94,0.00,,,0.01,0,Wunderground v.1.15,2013-06-05 03:42:00,
2013-06-04 23:47:00,58.9,57.2,30.17,NNW,344,0.0,1.0,94,0.00,,,0.01,0,Wunderground v.1.15,2013-06-05 03:47:00,
2013-06-04 23:52:00,58.6,56.9,30.17,NNW,344,0.0,0.0,94,0.00,,,0.01,0,Wunderground v.1.15,2013-06-05 03:52:00,
2013-06-04 23:57:00,58.3,56.6,30.17,NNW,344,0.0,0.0,94,0.00,,,0.01,0,Wunderground v.1.15,2013-06-05 03:57:00,